Regional Weather Roundup
Issued by NWS Kansas City/Pleasant Hill, MO

Home | Current Version | Previous Version | Graphics & Text | Print | Product List | Glossary Off
Versions: 1 2 3 4 5 6 7 8 9 10 11 12 13 14 15 16 17 18 19 20 21 22 23 24 25 26 27 28 29 30 31 32 33 34 35 36 37 38 39 40 41 42 43 44 45 46 47 48 49 50

000
ASUS43 KEAX 270010
RWREAX

WEATHER ROUNDUP FOR EASTERN KANSAS AND NORTHWEST MISSOURI
NATIONAL WEATHER SERVICE KANSAS CITY/PLEASANT HILL MO
700 PM CDT MON JUN 26 2017

KSZ040-057-103>105-MOZ028-029-037-043-270100-
...KANSAS CITY METROPOLITAN AREA...

CITY           SKY/WX    TMP DP  RH WIND       PRES   REMARKS
K.C. INTL      LGT RAIN  66  61  84 NE3       30.12F
6HR MIN TEMP:  60; 6HR MAX TEMP:  71; 6HR PCP:  0.05;

K.C. DOWNTOWN  LGT RAIN  72  54  53 N5        30.12R
6HR MIN TEMP:  62; 6HR MAX TEMP:  75; 6HR PCP: TRACE;

LEES SUMMIT    PTSUNNY   71  54  54 E5        30.13R
6HR MIN TEMP:  61; 6HR MAX TEMP:  73;

OLATHE - IXD   LGT RAIN  69  56  62 NE6       30.12R
6HR MIN TEMP:  68; 6HR MAX TEMP:  72; 6HR PCP: TRACE;

OLATHE - OJC   LGT RAIN  68  56  65 CALM      30.12R
6HR MIN TEMP:  65; 6HR MAX TEMP:  70; 6HR PCP: TRACE;

LAWRENCE       PTSUNNY   69  62  78 NE6       30.11R

$$

MOZ001>008-011>017-020>025-030>033-038>040-044>046-053-054-270100-
...NORTHERN AND CENTRAL MISSOURI...

CITY           SKY/WX    TMP DP  RH WIND       PRES   REMARKS
ST. JOSEPH     CLOUDY    68  60  75 E5        30.11F
6HR MIN TEMP:  58; 6HR MAX TEMP:  70; 6HR PCP:  0.05;

MOSBY          DRIZZLE   68  59  73 CALM      30.12S
WARRENSBURG    CLOUDY    68  55  64 CALM      30.12R
WHITEMAN AFB   PTSUNNY   67  63  85 E3        30.10S
6HR MIN TEMP:  59; 6HR MAX TEMP:  69; 6HR PCP:  0.11;

CLINTON        CLOUDY    72  55  56 SE8       30.11S
SEDALIA        PTSUNNY   69  63  81 CALM      30.13R
6HR MIN TEMP:  58; 6HR MAX TEMP:  70; 6HR PCP:  0.36;

WARSAW         NOT AVBL
CHILLICOTHE      N/A     71  57  61 W6        30.12S
6HR MIN TEMP:  61; 6HR MAX TEMP:  72;

KIRKSVILLE     SUNNY     71  54  54 SW7       30.10S
6HR MIN TEMP:  64; 6HR MAX TEMP:  73;


$$

MOZ041-047>049-056>058-063>065-088>090-097-270100-
...EASTERN AND SOUTHERN MISSOURI...

CITY           SKY/WX    TMP DP  RH WIND       PRES   REMARKS
ST. LOUIS INTL MOSUNNY   72  52  49 W10       30.10F
6HR MIN TEMP:  72; 6HR MAX TEMP:  81; 6HR PCP: TRACE;

SPIRIT OF STL  MOSUNNY   69  55  60 SW8       30.10S
COLUMBIA       CLOUDY    65  59  81 VRB3      30.10F
JEFFERSON CITY SUNNY     67  58  72 NW3       30.11S
ROLLA          CLOUDY    63  59  87 SE3       30.11R
OSAGE BEACH    CLOUDY    65  59  81 SE6       30.12F
SPRINGFIELD    CLOUDY    68  58  70 E7        30.12S
BRANSON        PTSUNNY   75  64  69 E5        30.11S
JOPLIN         SUNNY     75  65  70 E8        30.08S
WEST PLAINS    CLOUDY    62  59  90 NE10      30.16F

$$

IAZ060-094-KSZ022-034>040-054-083-096-NEZ052-066-093-270100-
...KANSAS...SOUTHEAST NEBRASKA AND IOWA...

CITY           SKY/WX    TMP DP  RH WIND       PRES   REMARKS
TOPEKA         PTSUNNY   68  64  87 NE6       30.09S
6HR MIN TEMP:  68; 6HR MAX TEMP:  77; 6HR PCP: TRACE;

MANHATTAN      LGT RAIN  70  65  84 E13       30.06S
EMPORIA        SUNNY     77  63  61 E13       30.04S
CHANUTE        SUNNY     75  64  68 E14       30.05F
WICHITA        MOSUNNY   86  60  41 S10       29.99F
OMAHA          MOSUNNY   75  50  41 NE7       30.10S
LINCOLN        PTSUNNY   74  55  51 NE9       30.11S
FALLS CITY     MOSUNNY   70  58  65 E6        30.10F
LAMONI         MOSUNNY   72  56  57 VRB3      30.10S
DES MOINES     MOSUNNY   73  43  33 N12       30.10S

$$




USA.gov is the U.S. government's official web portal to all federal, state and local government web resources and services.